ATLAS 5 CENTAUR DEB, 43994

Orbit data source: Space-Track

ATLAS 5 CENTAUR DEB, 43994 is space debris in HEO originally from a launch on Wed, 17 Sep 2014 UTC launched from the Air Force Eastern Test Range (AFETR). Debris objects in space refer to the collection of defunct objects orbiting the Earth. Examples of debris include non-operational satellites, rocket bodies, and fragments generated from explosions, collisions, or faulty payload assembly.

Loading next visibility...
Identifier
43994, 2014-055AZ
Orbit
HEO
Country
Flag of USUS
Related business
Flag of USUnited Launch Alliance/Lockheed Martin (US)
Manufacturer
Unknown
Mission
Spacecraft
Bus & Motor
Unknown
Mass
Unknown
Launch date (UTC)
2014-09-17 (12 years ago)
Launch vehicle
Unknown
Launch site
Air Force Eastern Test Range (AFETR)
Object type
Payload
Rocket body
Debris
Shape & HBR
Unknown shape, 1.1 m
Radar Cross Section
Medium (>0.1 m² and <1 m²)

Expand to show TLE details & history
Last TLE update: 4 days ago

TLE from 4 days ago
0 ATLAS 5 CENTAUR DEB
1 43994U 14055AZ  26169.28064084 -.00000035  00000-0  00000+0 0  9998
2 43994  19.3874 178.7433 4610221 105.8281 308.3170  1.80954083 50844
Epoch: 2026-06-18T06:44Z
TLE epoch observation values (Epoch: 2026-06-18T06:44:07.368Z)
Latitude
Longitude
171.20543°
Altitude
19,205.864 km
Speed
4.141 km/s
True Right ascension
11h 55m 02s
True Declination
0° 00' 00"
Sunlit
Object was in daylight at epoch
Visualization orbit readout
Latitude
Unknown
Longitude
Unknown
Altitude
Unknown
Speed
Unknown
Apparent Right ascension
Unknown
Apparent Declination
Unknown
Sunlit
N/A
Visualization observer readout
Local Sidereal Time
21:40:23
Azimuth
Unknown
Elevation
Unknown
Doppler factor
Unknown
Orbital elements
Apogee altitude
35,184.989 km
Perigee altitude
8,954.695 km
Semi-major axis
28,447.979 km
Eccentricity
0.46102
Inclination
19.3874°
RAAN
178.7433°
Arg. of periapsis
105.8281°
True anomaly
254.2662°
Mean anomaly
308.317°
Eccentric anomaly
282.53168°
Mean motion
0.45234 °/min
Orbital period
795.86 mins
BSTAR
0
Loading maneuver chart data...
Computing Atmospheric mass density...

Documentation

Showing up to 5 results
|